CAPE
0 0 0 0 0 17 6 7 2 4 19 0 1 5 20 49 109 0 390 555 787 1171 1392 1612 1833 1811 1791 1641 1318 1193 1126 1083 1131 1075 1157 1235 1158 1183 1328 1743 1848 1316 865 358 206 160 101 141 126
0 0 0 0 0 3 21 0 0 0 0 8 17 16 21 110 722 725 705 580 852 1161 1198 1154 1815 1822 1773 1596 1366 1239 1198 1146 1181 1222 1158 1274 1314 1121 935 1290 1369 872 554 346 182 140 98 111 94
0 0 0 0 0 1 3 0 0 0 67 77 142 177 165 263 1258 773 759 729 919 1041 1080 1066 1805 1742 1738 1592 1418 1296 1227 1227 1209 1122 1189 1252 1404 1460 1336 1225 1071 506 129 97 96 198 150 88 56
0 0 0 0 0 0 3 0 0 5 105 137 299 262 205 149 1004 917 838 773 912 1026 1108 1724 1746 1725 1659 1575 1480 1362 1310 1318 1339 1177 1158 1248 1355 1516 1385 1159 891 488 37 82 66 208 142 74 17
0 0 0 0 0 0 22 0 1 0 0 20 303 198 236 1066 1195 1089 747 713 789 968 1387 1940 2008 1892 1763 1614 1443 1462 1347 1363 1436 1413 1120 1187 1360 1407 1294 1111 837 392 134 110 256 318 344 266 84
0 0 0 0 0 0 0 0 9 1 0 3 206 110 396 1237 1188 1019 756 531 744 1223 1696 1936 2138 2023 1848 1711 1561 1495 1387 1372 1476 1561 1491 1477 1415 1370 1233 1077 911 661 519 387 317 463 506 343 214
0 0 0 0 0 0 0 0 0 0 0 17 108 448 831 1257 1144 921 815 926 1117 1356 1522 1697 1883 1910 1913 1735 1583 1540 1422 1365 1428 1444 1475 1423 1317 1254 1203 1063 1018 940 669 585 616 523 492 391 288
0 0 0 0 0 0 0 0 0 0 49 845 975 617 856 1237 1144 1129 948 929 1056 1153 1203 1172 1493 1670 1599 1556 1728 1642 1502 1467 1416 1393 1392 1286 1237 1181 1207 932 932 980 760 592 533 472 377 260 129
0 0 0 0 0 0 0 0 0 0 370 971 1031 874 934 1372 1249 995 898 831 804 936 926 1025 1298 1212 1236 1409 1450 1647 1467 1528 1502 1470 1425 1039 742 699 713 774 683 1003 926 758 595 495 383 219 110
0 0 0 0 0 0 0 0 0 0 510 814 833 816 1195 1289 1085 904 826 850 746 617 739 856 946 1076 1528 1329 1304 1357 1283 1302 1176 1118 998 770 546 367 435 603 908 980 1057 875 675 548 463 308 5
0 0 0 0 0 1 0 0 0 0 219 805 765 806 1253 1147 1108 1110 1037 873 647 678 618 495 588 631 915 1154 1003 1621 1213 1626 1082 972 843 756 480 233 330 245 259 438 321 313 233 111 28 6 0
0 0 0 0 0 0 5 0 0 0 18 311 768 772 1007 1234 1124 1180 1083 1039 1184 1246 945 254 249 286 378 439 840 889 1033 1225 928 924 854 730 455 154 1 9 0 0 0 52 119 13 11 4 0
0 0 0 0 0 0 1 1 0 0 0 0 251 720 714 645 515 620 1053 1182 1075 897 890 228 144 144 172 198 373 480 628 813 810 741 657 624 433 23 0 0 0 0 0 0 4 24 42 100 113
0 0 0 0 0 0 0 2 1 1 0 0 0 0 7 36 90 226 398 718 771 732 621 521 205 177 170 157 161 250 141 345 400 352 318 228 84 0 0 0 0 0 0 29 44 149 283 286 218
0 0 0 0 0 0 0 0 5 0 0 0 0 0 0 4 23 76 100 323 576 588 360 403 262 255 253 309 322 217 300 381 572 285 90 398 350 383 309 96 0 0 0 75 111 86 305 531 728
0 0 0 0 0 0 0 0 0 0 1 0 0 0 0 0 2 37 149 310 357 145 300 413 518 319 281 254 318 546 683 1020 579 741 693 620 722 700 819 788 706 582 662 385 318 513 577 671 956
0 0 0 0 0 0 0 0 0 0 0 0 0 0 0 0 0 0 342 469 405 342 319 366 313 254 92 104 185 402 1011 1337 1110 1075 860 768 1079 913 861 961 940 847 598 787 938 1134 1181 1112 1159
0 0 0 0 0 0 0 0 0 0 1 6 0 0 0 0 0 37 382 574 482 319 292 232 115 111 125 13 661 669 1603 1695 1717 1683 1336 1010 1239 1210 1210 1264 1207 1019 917 1141 1106 1110 1157 1201 1035
0 0 0 0 0 0 0 0 0 0 0 0 3 2 0 0 11 357 414 508 601 435 392 305 196 73 112 7 63 1618 2211 1841 1841 1846 1673 1656 1862 1869 1673 1587 1463 1162 1004 916 1057 914 807 814 800
0 0 0 0 0 0 0 0 0 0 0 0 0 0 0 0 0 278 377 433 548 549 432 304 158 37 0 14 11 422 1759 2217 2126 1980 1860 1813 1869 1971 2090 2059 1965 1713 1263 1102 1091 1003 884 847 751
0 0 0 0 0 0 0 0 0 0 0 0 0 0 0 0 0 12 167 287 306 314 321 236 198 160 27 10 81 694 1370 1602 2082 1987 1689 1277 1548 1848 1835 1906 1676 1563 1202 1205 1085 772 885 820 634
0 0 0 0 0 0 0 0 0 0 0 0 0 0 0 0 0 0 0 0 16 25 195 170 174 134 479 736 380 638 1238 1695 1735 1531 1228 1210 974 1225 1291 1450 1355 1219 1208 997 475 532 635 604 403
0 0 0 0 0 0 0 0 0 0 0 0 0 0 0 0 0 0 60 177 349 454 582 583 673 818 858 875 1055 1081 1105 1077 869 856 846 828 648 528 564 649 583 610 544 536 576 669 646 357 364
0 0 0 0 0 0 0 0 0 0 0 0 0 0 0 0 1 224 449 564 503 438 450 565 643 629 696 840 863 826 751 572 486 406 287 304 280 286 215 285 336 352 256 411 612 537 471 452 371
0 0 0 0 0 0 0 0 0 0 0 0 0 0 0 27 339 592 566 474 443 427 468 446 433 417 423 386 362 248 218 171 116 80 54 59 99 135 170 169 149 145 144 147 179 222 150 210 289
0 0 0 0 0 0 0 0 0 0 0 0 0 0 0 185 634 628 412 193 59 28 13 5 0 0 0 2 6 23 50 90 107 84 39 17 1 0 0 0 0 2 0 57 52 59 71 116 93
0 0 0 0 0 0 0 0 0 8 8 0 0 0 6 443 744 499 165 36 10 3 0 2 0 0 0 0 0 0 0 0 0 0 0 0 0 0 0 0 0 0 0 1 10 19 49 65 69
1 0 6 10 0 0 3 10 0 13 19 6 0 0 30 382 448 170 27 22 15 15 11 10 0 0 0 0 0 0 0 0 0 0 0 0 0 0 0 0 0 0 0 0 0 0 0 15 67
0 0 15 21 3 0 0 0 47 64 65 22 0 0 100 344 221 97 57 27 20 10 13 4 0 0 0 0 0 0 0 0 0 0 0 0 0 0 0 0 0 0 0 0 0 0 0 0 0
0 0 0 2 4 37 4 0 81 51 52 3 0 36 221 277 124 83 51 22 16 18 8 0 0 0 0 0 0 0 0 0 0 0 0 0 0 0 0 0 0 0 0 0 0 0 0 0 0
CIN
0 0 0 0 0 -26 -6 -5 -3 -25 -14 0 -64 -112 -49 -135 -120 0 -411 -578 -583 -458 -346 -259 -223 -196 -189 -189 -221 -248 -249 -225 -203 -185 -139 -97 -94 -74 -45 -7 -2 -32 -84 -220 -258 -277 -312 -276 -269
0 0 0 0 0 -1 -7 0 0 0 0 -93 -68 -91 -110 -189 -307 -423 -578 -676 -606 -523 -434 -385 -235 -230 -192 -191 -222 -231 -232 -216 -185 -161 -147 -108 -78 -90 -98 -35 -25 -70 -151 -218 -269 -282 -301 -285 -287
0 0 0 0 0 -1 -5 -10 0 0 -66 -77 -107 -164 -227 -230 -288 -413 -466 -658 -619 -558 -487 -426 -218 -226 -216 -218 -227 -220 -206 -192 -175 -158 -130 -104 -71 -43 -40 -37 -48 -151 -268 -272 -274 -236 -243 -281 -305
0 0 0 0 0 0 -9 0 -8 -4 -13 -41 -109 -116 -153 -153 -279 -382 -504 -619 -553 -516 -473 -316 -205 -199 -206 -188 -205 -200 -164 -150 -125 -145 -133 -97 -89 -51 -39 -51 -73 -145 -332 -273 -268 -209 -238 -276 -295
0 0 0 0 0 0 -10 0 -10 0 0 -24 -75 -71 -33 -342 -344 -315 -499 -581 -526 -428 -316 -213 -161 -151 -171 -172 -183 -176 -162 -138 -97 -82 -122 -86 -64 -56 -74 -97 -137 -221 -274 -260 -205 -180 -172 -182 -253
0 0 0 0 0 0 0 0 -5 -7 0 -21 -45 -58 -210 -371 -351 -340 -212 -567 -461 -316 -213 -170 -106 -92 -116 -127 -147 -148 -156 -132 -102 -91 -74 -41 -43 -53 -83 -100 -136 -176 -189 -205 -201 -144 -137 -174 -205
0 0 0 0 0 0 0 0 0 0 0 -69 -97 -137 -323 -315 -328 -243 -465 -433 -350 -279 -226 -202 -164 -111 -97 -114 -135 -148 -160 -147 -104 -127 -90 -62 -65 -71 -74 -94 -93 -113 -164 -167 -131 -142 -154 -177 -196
0 0 0 0 0 0 0 0 0 0 -65 -125 -146 -116 -251 -261 -258 -369 -367 -367 -332 -287 -274 -266 -190 -140 -144 -143 -114 -141 -155 -164 -143 -131 -100 -88 -73 -86 -83 -138 -124 -91 -128 -167 -163 -163 -186 -230 -272
0 0 0 0 0 0 0 0 0 0 -111 -85 -41 -25 -231 -181 -149 -296 -331 -332 -347 -312 -314 -271 -203 -191 -163 -124 -125 -111 -122 -110 -106 -109 -90 -137 -187 -192 -192 -167 -184 -112 -119 -139 -159 -166 -191 -224 -246
0 0 0 0 0 0 0 0 0 0 -55 -89 -44 -74 -190 -151 -211 -258 -338 -329 -336 -387 -338 -274 -231 -186 -83 -101 -106 -110 -123 -132 -153 -165 -176 -208 -266 -297 -266 -212 -144 -122 -105 -123 -146 -169 -173 -189 -298
0 0 0 0 0 -83 0 0 0 0 -61 -45 -55 -107 -203 -201 -153 -182 -211 -219 -101 -85 -125 -337 -275 -241 -179 -119 -149 -66 -130 -97 -182 -186 -209 -221 -272 -324 -305 -322 -323 -251 -263 -239 -253 -282 -325 -396 0
0 0 0 0 0 -11 -44 0 0 0 -28 -50 -90 -75 -123 -130 -95 -96 -116 -112 -104 -82 -87 -414 -385 -369 -328 -315 -201 -199 -153 -124 -224 -217 -221 -255 -291 -353 -513 -412 0 0 0 -328 -283 -320 -374 -454 0
0 0 0 0 0 0 -30 -5 0 0 0 0 -47 -46 -62 -55 -51 -109 -84 -57 -80 -65 -74 -271 -492 -532 -544 -502 -413 -311 -307 -256 -262 -273 -278 -287 -309 -499 0 0 0 0 0 0 -124 -200 -95 -79 -77
0 0 0 0 0 0 0 -24 -11 -5 0 0 0 0 -188 -212 -175 -230 -148 -113 -93 -66 -109 -59 -184 -549 -528 -608 -579 -476 -450 -215 -355 -347 -350 -365 -449 0 0 0 0 0 0 -200 -209 -82 -81 -58 -67
0 0 0 0 0 0 0 0 -9 -12 0 0 0 0 0 -300 -335 -331 -293 -406 -97 -71 -295 -276 -79 -470 -462 -524 -552 -512 -145 -140 -126 -124 -118 -99 -83 -73 -83 -66 0 0 0 -147 -174 -122 -76 -45 -24
0 0 0 0 0 0 0 0 0 -8 -18 -4 0 0 0 0 -343 -420 -457 -439 -422 -534 -465 -319 -539 -496 -336 -278 -183 -405 -148 -169 -151 -113 -81 -80 -62 -50 -45 -40 -35 -18 -12 -33 -52 -32 -31 -33 -9
0 0 0 0 0 0 0 0 0 0 0 -6 0 0 0 0 0 0 -478 -424 -453 -430 -436 -310 -303 -432 -538 -228 -197 -319 -252 -135 -86 -57 -57 -58 -36 -20 -27 -14 -3 -2 -4 -8 -29 -10 -7 -7 -10
0 0 0 0 0 0 0 0 0 0 -59 -59 0 0 0 0 0 -442 -445 -367 -381 -421 -108 -130 -364 -521 -423 -557 -322 -327 -183 -128 -67 -51 -44 -35 -26 -16 -10 -3 -4 -3 -81 -38 -28 -27 -20 -18 -21
0 0 0 0 0 0 0 0 0 0 0 -1 -92 -25 0 0 -30 -329 -338 -290 -226 -199 -126 -180 -226 -455 -358 -314 -477 -169 -110 -104 -95 -34 -38 -25 -21 -10 -8 -7 -3 -12 -11 -25 -29 -14 -18 -29 -36
0 0 0 0 0 0 0 0 0 0 0 0 0 -40 0 0 0 -191 -260 -242 -195 -162 -173 -201 -361 -301 0 -186 -155 -312 -104 -63 -55 -38 -50 -48 -40 -16 -10 -8 -4 -9 -6 -15 -24 -28 -46 -43 -28
0 0 0 0 0 0 0 0 0 0 0 0 0 0 0 0 0 -89 -175 -193 -172 -199 -229 -276 -140 -67 -45 -81 -446 -207 -67 -77 -36 -24 -18 -35 -31 -18 -36 -50 -41 -24 -22 -27 -31 -41 -35 -23 -26
0 0 0 0 0 0 0 0 0 0 0 0 0 0 0 0 0 0 0 0 -34 -224 -200 -245 -200 -391 -236 -151 -152 -139 -66 -45 -25 -27 -31 -22 -64 -61 -56 -45 -13 -34 -49 -23 -94 -78 -44 -50 -66
0 0 0 0 0 0 0 -4 0 0 0 0 0 0 0 0 0 0 -234 -232 -218 -189 -151 -150 -125 -85 -73 -66 -55 -46 -35 -21 -38 -35 -34 -31 -26 -26 -60 -72 -47 -62 -48 -43 -90 -53 -56 -36 -48
0 0 0 0 0 0 0 0 0 0 0 0 0 0 0 0 -13 -141 -94 -82 -89 -101 -100 -96 -81 -68 -55 -39 -35 -24 -15 -15 -13 -12 -21 -32 -26 -24 -52 -43 -44 -54 -37 -75 -45 -39 -65 -55 -45
0 0 0 0 0 0 0 0 0 0 0 0 0 0 0 -351 -202 -85 -57 -60 -92 -106 -99 -99 -83 -72 -55 -40 -34 -62 -84 -101 -86 -77 -71 -62 -46 -28 -17 -7 -7 -18 -27 -43 -63 -56 -42 -57 -37
0 0 0 0 0 0 0 0 0 0 0 0 0 0 0 -238 -113 -72 -79 -50 -86 -217 -244 -250 -21 -30 0 -17 -13 -143 -137 -88 -57 -50 -79 -90 -7 0 0 0 0 -2 0 -20 -22 -46 -53 -40 -33
0 0 0 -1 0 0 0 0 0 -122 -160 0 0 0 -187 -151 -87 -51 -49 -38 -27 -52 -4 -44 0 0 0 0 0 0 0 0 0 0 0 0 0 0 0 0 0 0 0 0 -12 -17 -15 -23 -30
-3 0 -51 -33 0 0 -20 -96 -32 -175 -163 -323 0 0 -342 -155 -86 -82 -42 -33 -39 -52 -41 -33 0 0 0 0 0 0 0 0 0 0 0 0 0 0 0 0 0 0 0 0 0 0 0 -18 -9
0 0 -45 -46 -21 0 0 -38 -128 -119 -89 -123 0 0 -294 -151 -125 -62 -57 -54 -57 -45 -39 -32 0 0 0 0 0 0 0 0 0 0 0 0 0 0 0 0 0 0 0 0 0 0 0 0 0
0 0 0 -25 -90 -80 -23 0 -90 -109 -218 -20 0 -252 -186 -85 -59 -69 -62 -58 -50 -42 -43 0 0 0 0 0 0 0 0 0 0 0 0 0 0 0 0 0 0 0 0 0 0 0 0 0 0
Wind_Speed
nan nan nan nan nan nan nan nan nan nan nan nan nan nan nan nan 11 nan 3 13 17 19 14 11 14 11 10 8 8 8 10 10 11 11 12 14 14 15 14 17 19 21 22 22 22 22 22 23 24
nan nan nan nan nan nan nan nan nan nan nan nan nan nan nan 16 7 11 6 10 25 22 16 7 12 11 9 7 6 6 9 11 10 10 11 14 14 14 16 18 18 18 19 20 22 23 nan 23 nan
nan nan nan nan nan nan nan nan nan nan nan nan 7 10 16 18 2 8 6 21 22 21 17 6 8 8 9 9 8 7 10 10 9 11 11 14 16 15 16 16 16 17 18 nan nan 24 24 nan nan
nan nan nan nan nan nan nan nan nan nan 20 12 8 8 11 14 6 0 15 18 13 13 14 11 5 6 10 9 11 10 11 11 12 13 14 16 19 19 16 16 16 17 nan nan nan 24 26 nan nan
nan nan nan nan nan nan nan nan nan nan nan nan 13 14 16 17 10 11 15 13 17 13 14 14 10 9 13 13 12 12 13 12 11 12 15 16 19 20 19 20 21 20 22 22 24 25 27 26 nan
nan nan nan nan nan nan nan nan nan nan nan nan 21 24 20 14 19 16 15 23 21 19 18 17 16 13 11 12 13 13 15 13 14 15 16 16 16 18 19 19 22 24 24 24 26 26 27 27 26
nan nan nan nan nan nan nan nan nan nan nan nan 31 25 22 20 25 26 24 29 26 24 18 17 12 9 9 10 13 14 14 15 14 17 17 17 18 19 19 20 20 22 24 26 26 28 29 28 25
nan nan nan nan nan nan nan nan nan nan nan 34 36 26 25 27 28 35 32 29 33 29 24 20 15 14 11 8 11 15 18 21 21 20 19 19 18 20 20 21 20 21 23 26 28 29 30 31 28
nan nan nan nan nan nan nan nan nan nan 45 45 39 37 33 28 32 36 34 34 31 30 28 26 24 19 16 17 16 18 19 21 21 22 22 21 20 18 19 20 21 22 24 27 28 28 29 29 28
nan nan nan nan nan nan nan nan nan nan 48 51 51 44 44 41 34 30 29 29 28 31 33 33 32 30 25 23 20 22 18 19 20 22 23 22 22 21 21 21 21 22 26 27 28 30 30 29 nan
nan nan nan nan nan nan nan nan nan nan 57 45 49 42 42 43 42 40 35 36 32 28 28 33 37 37 35 32 26 25 20 21 23 24 24 24 23 24 26 26 25 25 25 28 28 29 nan nan nan
nan nan nan nan nan nan nan nan nan nan nan 48 49 45 42 42 41 39 39 31 25 34 30 37 38 38 37 37 35 31 26 22 29 29 26 27 26 26 nan nan nan nan nan nan 33 nan nan nan nan
nan nan nan nan nan nan nan nan nan nan nan nan 60 56 47 43 39 39 36 32 27 21 24 40 36 39 40 42 43 44 36 28 29 31 28 32 31 nan nan nan nan nan nan nan nan nan nan 31 31
nan nan nan nan nan nan nan nan nan nan nan nan nan nan nan nan nan 39 30 27 34 33 32 34 33 36 39 41 50 44 37 34 36 33 32 34 nan nan nan nan nan nan nan nan nan 36 35 31 34
nan nan nan nan nan nan nan nan nan nan nan nan nan nan nan nan nan nan 38 37 38 35 40 42 46 40 39 36 49 61 47 34 28 25 nan 36 32 34 35 nan nan nan nan nan 43 nan 35 32 32
nan nan nan nan nan nan nan nan nan nan nan nan nan nan nan nan nan nan 45 47 44 37 28 26 21 25 33 36 41 41 36 39 39 31 37 32 33 37 43 40 39 40 43 42 43 39 35 36 32
nan nan nan nan nan nan nan nan nan nan nan nan nan nan nan nan nan nan 43 45 37 33 33 25 24 26 nan 36 39 23 32 36 33 31 34 37 30 40 46 46 40 45 46 44 42 39 38 31 35
nan nan nan nan nan nan nan nan nan nan nan nan nan nan nan nan nan nan 56 46 41 47 51 41 37 36 41 nan 30 26 23 28 33 33 33 39 48 42 49 47 46 44 46 44 44 39 35 32 37
nan nan nan nan nan nan nan nan nan nan nan nan nan nan nan nan nan 57 56 56 59 58 62 56 47 nan 38 nan nan 33 29 30 27 36 41 45 49 49 51 49 49 50 49 44 44 39 38 40 39
nan nan nan nan nan nan nan nan nan nan nan nan nan nan nan nan nan 64 59 59 59 61 60 56 43 nan nan nan nan 34 36 36 33 38 39 43 46 46 47 48 49 49 48 41 42 45 43 39 36
nan nan nan nan nan nan nan nan nan nan nan nan nan nan nan nan nan nan 62 59 59 58 56 53 41 27 nan nan nan 31 33 38 38 40 42 44 39 43 47 51 48 47 44 39 40 41 42 38 33
nan nan nan nan nan nan nan nan nan nan nan nan nan nan nan nan nan nan nan nan nan nan 58 56 55 51 33 33 32 32 37 38 38 40 40 37 44 50 45 43 43 39 40 38 39 42 44 41 41
nan nan nan nan nan nan nan nan nan nan nan nan nan nan nan nan nan nan nan 61 61 61 61 62 67 68 61 59 55 49 52 49 46 45 47 46 45 43 43 44 46 39 41 41 38 40 46 45 44
nan nan nan nan nan nan nan nan nan nan nan nan nan nan nan nan nan 61 56 52 49 47 54 58 67 64 65 60 55 54 58 56 52 47 46 44 39 45 47 47 45 45 42 39 40 43 44 43 44
nan nan nan nan nan nan nan nan nan nan nan nan nan nan nan nan 48 39 33 32 38 41 44 48 57 57 54 54 52 45 44 44 42 nan nan nan nan 39 44 46 46 49 50 52 53 48 48 43 49
nan nan nan nan nan nan nan nan nan nan nan nan nan nan nan 44 39 40 36 29 nan nan nan nan nan nan nan nan nan nan nan nan 46 nan nan nan nan nan nan nan nan nan nan nan nan nan nan 50 nan
nan nan nan nan nan nan nan nan nan nan nan nan nan nan nan 42 35 32 35 nan nan nan nan nan nan nan nan nan nan nan nan nan nan nan nan nan nan nan nan nan nan nan nan nan nan nan nan nan nan
nan nan nan nan nan nan nan nan nan nan nan nan nan nan nan 35 35 30 nan nan nan nan nan nan nan nan nan nan nan nan nan nan nan nan nan nan nan nan nan nan nan nan nan nan nan nan nan nan nan
nan nan nan nan nan nan nan nan nan nan nan nan nan nan 25 22 22 nan nan nan nan nan nan nan nan nan nan nan nan nan nan nan nan nan nan nan nan nan nan nan nan nan nan nan nan nan nan nan nan
nan nan nan nan nan nan nan nan nan nan nan nan nan nan 32 24 22 nan nan nan nan nan nan nan nan nan nan nan nan nan nan nan nan nan nan nan nan nan nan nan nan nan nan nan nan nan nan nan nan
Wind_Direction
nan nan nan nan nan nan nan nan nan nan nan nan nan nan nan nan 157 nan 149 332 311 323 331 350 349 351 340 334 341 338 328 330 324 324 327 327 327 327 329 332 338 340 338 338 342 343 338 337 332
nan nan nan nan nan nan nan nan nan nan nan nan nan nan nan 135 174 148 329 341 326 324 322 343 353 341 336 338 334 332 329 324 323 325 329 326 327 329 328 332 339 345 343 345 344 341 nan 338 nan
nan nan nan nan nan nan nan nan nan nan nan nan 247 202 161 157 145 5 355 330 312 316 310 321 347 338 330 329 321 325 334 323 323 326 332 331 324 327 333 336 344 346 347 nan nan 341 339 nan nan
nan nan nan nan nan nan nan nan nan nan 202 238 218 214 158 158 147 255 313 314 279 289 288 304 304 325 319 320 314 309 318 315 317 329 332 339 334 333 335 337 343 347 nan nan nan 342 338 nan nan
nan nan nan nan nan nan nan nan nan nan nan nan 189 215 201 183 192 271 277 268 257 239 238 253 265 294 315 315 313 304 316 316 307 312 325 333 334 336 334 338 340 344 349 351 347 343 339 335 nan
nan nan nan nan nan nan nan nan nan nan nan nan 192 222 211 199 244 243 252 229 230 234 235 239 246 257 281 295 308 302 295 300 302 304 316 327 333 335 334 338 340 343 344 345 347 345 342 338 335
nan nan nan nan nan nan nan nan nan nan nan nan 220 212 211 191 243 237 239 230 230 234 238 244 243 265 276 287 298 302 311 310 312 310 315 323 331 332 329 333 339 341 342 344 344 342 340 338 336
nan nan nan nan nan nan nan nan nan nan nan 219 215 221 209 206 232 232 228 236 237 241 243 248 251 246 259 276 304 303 311 315 319 315 312 314 321 325 326 330 336 337 340 341 342 343 342 339 337
nan nan nan nan nan nan nan nan nan nan 220 225 211 223 223 234 245 243 230 228 242 248 248 248 251 257 263 260 273 290 303 303 309 311 310 306 302 314 319 323 333 334 336 341 342 342 342 338 333
nan nan nan nan nan nan nan nan nan nan 215 226 229 225 237 240 236 248 240 241 243 249 252 257 260 256 249 249 254 257 273 286 293 297 300 297 300 307 309 319 328 332 335 340 341 341 340 335 nan
nan nan nan nan nan nan nan nan nan nan 223 228 238 232 238 242 241 244 238 230 233 252 251 253 252 254 254 250 251 253 265 281 283 286 290 296 298 300 301 305 310 313 324 322 326 325 nan nan nan
nan nan nan nan nan nan nan nan nan nan nan 237 242 244 235 243 247 245 244 234 251 250 248 253 263 267 267 271 271 265 263 273 284 285 296 297 294 294 nan nan nan nan nan nan 324 nan nan nan nan
nan nan nan nan nan nan nan nan nan nan nan nan 245 247 244 248 252 255 259 243 230 260 259 264 256 264 280 285 283 278 275 274 278 285 292 293 292 nan nan nan nan nan nan nan nan nan nan 320 317
nan nan nan nan nan nan nan nan nan nan nan nan nan nan nan nan nan 249 250 245 238 261 279 279 281 292 301 292 287 282 277 284 286 293 294 296 nan nan nan nan nan nan nan nan nan 317 316 318 312
nan nan nan nan nan nan nan nan nan nan nan nan nan nan nan nan nan nan 262 262 259 260 267 283 292 293 313 304 278 285 279 276 288 312 nan 300 309 321 316 nan nan nan nan nan 318 nan 312 309 307
nan nan nan nan nan nan nan nan nan nan nan nan nan nan nan nan nan nan 266 275 281 281 288 284 289 310 309 300 294 307 261 273 283 280 291 289 310 317 308 306 306 304 310 312 312 311 310 312 304
nan nan nan nan nan nan nan nan nan nan nan nan nan nan nan nan nan nan 266 278 277 273 275 273 278 289 nan 271 273 278 299 280 291 282 280 277 292 304 303 301 303 303 306 307 309 306 304 302 300
nan nan nan nan nan nan nan nan nan nan nan nan nan nan nan nan nan nan 267 267 266 276 280 281 275 277 268 nan 273 280 284 294 285 288 276 271 285 302 297 298 297 302 304 303 301 301 301 296 294
nan nan nan nan nan nan nan nan nan nan nan nan nan nan nan nan nan 260 270 269 276 274 276 280 279 nan 274 nan nan 265 275 282 294 283 273 273 281 290 292 294 296 297 302 303 300 296 296 293 292
nan nan nan nan nan nan nan nan nan nan nan nan nan nan nan nan nan 260 262 268 275 278 279 282 285 nan nan nan nan 275 270 274 275 276 276 268 274 283 287 295 298 299 300 294 295 296 292 289 289
nan nan nan nan nan nan nan nan nan nan nan nan nan nan nan nan nan nan 262 265 268 275 280 283 281 276 nan nan nan 279 280 279 279 274 274 279 283 290 294 292 297 291 290 290 286 289 292 283 282
nan nan nan nan nan nan nan nan nan nan nan nan nan nan nan nan nan nan nan nan nan nan 270 274 274 274 267 267 274 283 286 281 281 279 279 279 281 282 280 282 279 281 280 283 282 284 286 285 291
nan nan nan nan nan nan nan nan nan nan nan nan nan nan nan nan nan nan nan 261 263 264 265 266 270 275 278 274 273 281 280 286 282 280 277 274 277 275 276 280 277 274 277 279 275 284 290 286 289
nan nan nan nan nan nan nan nan nan nan nan nan nan nan nan nan nan 264 263 266 267 267 264 264 264 266 266 270 270 271 274 271 271 272 273 271 272 272 267 267 270 273 274 274 279 279 283 287 284
nan nan nan nan nan nan nan nan nan nan nan nan nan nan nan nan 262 267 283 279 272 265 264 263 265 264 267 269 272 271 271 275 277 nan nan nan nan 272 267 266 265 269 270 272 273 274 277 272 277
nan nan nan nan nan nan nan nan nan nan nan nan nan nan nan 259 270 274 269 272 nan nan nan nan nan nan nan nan nan nan nan nan 271 nan nan nan nan nan nan nan nan nan nan nan nan nan nan 274 nan
nan nan nan nan nan nan nan nan nan nan nan nan nan nan nan 260 270 259 250 nan nan nan nan nan nan nan nan nan nan nan nan nan nan nan nan nan nan nan nan nan nan nan nan nan nan nan nan nan nan
nan nan nan nan nan nan nan nan nan nan nan nan nan nan nan 252 250 248 nan nan nan nan nan nan nan nan nan nan nan nan nan nan nan nan nan nan nan nan nan nan nan nan nan nan nan nan nan nan nan
nan nan nan nan nan nan nan nan nan nan nan nan nan nan 245 251 253 nan nan nan nan nan nan nan nan nan nan nan nan nan nan nan nan nan nan nan nan nan nan nan nan nan nan nan nan nan nan nan nan
nan nan nan nan nan nan nan nan nan nan nan nan nan nan 227 223 241 nan nan nan nan nan nan nan nan nan nan nan nan nan nan nan nan nan nan nan nan nan nan nan nan nan nan nan nan nan nan nan nan